Terminal Aerodrome Forecast
Issued by NWS

Home | Current Version | Previous Version | Text Only | Print | Product List | Glossary On
Versions: 1 2 3 4 5 6 7 8 9 10 11 12 13
604
FTUS43 KAPX 240522
TAFMBL
TAF
KMBL 240522Z 2406/2506 16008KT P6SM -SHRA OVC035 WS020/19040KT
     FM240900 20007KT P6SM -RA OVC030
     FM241200 20004KT 4SM -RA OVC015
     FM241400 20004KT 3SM BR VCSH OVC008
     FM242000 34006KT 2SM -RA BR OVC005
     FM242200 01006KT 2SM -RA BR OVC005
     FM250000 05006KT 2SM -RA BR OVC008=

USA.gov is the U.S. government's official web portal to all federal, state and local government web resources and services.